| time (UTC) | temp F | wind direction | speed MPH | gust MPH | rain 1hr in | rain 24hr in | rain mn in | humidity % | barometer mb |
| 20260504130406 | 55 | 204 | 4.0 | 6.0 | 0.00 | 0.00 | 0.00 | 1 | 1007.1 |
| 20260504110253 | 48 | 217 | 4.0 | 6.0 | 0.00 | 0.00 | 0.00 | 1 | 1006.9 |
| 20260504100211 | 48 | 180 | 7.0 | 8.0 | 0.00 | 0.00 | 0.00 | 1 | 1007.0 |
| 20260504090134 | 49 | 271 | 4.0 | 6.0 | 0.00 | 0.00 | 0.00 | 1 | 1007.3 |
| 20260504081604 | 49 | 204 | 2.0 | 3.0 | 0.00 | 0.00 | 0.00 | 1 | 1007.6 |
| 20260504081100 | 48 | 216 | 4.0 | 6.0 | 0.00 | 0.00 | 0.00 | 1 | 1007.8 |
| 20260504080557 | 48 | 222 | 5.0 | 5.0 | 0.00 | 0.00 | 0.00 | 1 | 1007.9 |
| 20260504050410 | 48 | 228 | 3.0 | 3.0 | 0.00 | 0.00 | 0.00 | 1 | 1009.6 |
| 20260504045907 | 48 | 239 | 3.0 | 3.0 | 0.00 | 0.00 | 0.00 | 1 | 1009.7 |
| 20260504045402 | 48 | 261 | 3.0 | 3.0 | 0.00 | 0.00 | 0.00 | 1 | 1009.5 |
| 20260504044859 | 48 | 220 | 4.0 | 5.0 | 0.00 | 0.00 | 0.00 | 1 | 1009.6 |
| 20260504044356 | 48 | 236 | 1.0 | 2.0 | 0.00 | 0.00 | 0.00 | 1 | 1009.6 |
| 20260504043854 | 48 | 242 | 3.0 | 5.0 | 0.00 | 0.00 | 0.00 | 1 | 1009.9 |
| 20260504043350 | 48 | 234 | 3.0 | 3.0 | 0.00 | 0.00 | 0.00 | 1 | 1009.8 |
| 20260504042848 | 48 | 206 | 3.0 | 5.0 | 0.00 | 0.00 | 0.00 | 1 | 1009.7 |
| 20260504042344 | 48 | 249 | 3.0 | 3.0 | 0.00 | 0.00 | 0.00 | 1 | 1009.7 |
| 20260504041840 | 48 | 227 | 3.0 | 3.0 | 0.00 | 0.00 | 0.00 | 1 | 1009.9 |
| 20260504041337 | 48 | 228 | 3.0 | 3.0 | 0.00 | 0.00 | 0.00 | 1 | 1009.7 |
| 20260504040833 | 48 | 225 | 2.0 | 2.0 | 0.00 | 0.00 | 0.00 | 1 | 1009.7 |
| 20260504040331 | 48 | 240 | 2.0 | 2.0 | 0.00 | 0.00 | 0.00 | 1 | 1009.8 |
| 20260504035826 | 48 | 236 | 4.0 | 5.0 | 0.00 | 0.00 | 0.00 | 1 | 1009.7 |
| 20260504035324 | 48 | 228 | 3.0 | 5.0 | 0.00 | 0.00 | 0.00 | 1 | 1009.9 |
| 20260504034821 | 48 | 243 | 3.0 | 3.0 | 0.00 | 0.00 | 0.00 | 1 | 1009.8 |
| 20260504034319 | 49 | 255 | 4.0 | 5.0 | 0.00 | 0.00 | 0.00 | 1 | 1009.7 |
| 20260504033816 | 49 | 215 | 4.0 | 5.0 | 0.00 | 0.00 | 0.00 | 1 | 1009.7 |
| 20260504033314 | 49 | 224 | 5.0 | 6.0 | 0.00 | 0.00 | 0.00 | 1 | 1009.8 |
| 20260504032810 | 49 | 230 | 4.0 | 5.0 | 0.00 | 0.00 | 0.00 | 1 | 1009.9 |
| 20260504032307 | 49 | 223 | 3.0 | 3.0 | 0.00 | 0.00 | 0.00 | 1 | 1010.0 |
| 20260504031804 | 49 | 227 | 5.0 | 7.0 | 0.00 | 0.00 | 0.00 | 1 | 1009.9 |
| 20260504031301 | 49 | 227 | 3.0 | 3.0 | 0.00 | 0.00 | 0.00 | 1 | 1010.1 |
| 20260504030757 | 49 | 217 | 4.0 | 5.0 | 0.00 | 0.00 | 0.00 | 1 | 1010.0 |
| 20260504030255 | 49 | 237 | 3.0 | 5.0 | 0.00 | 0.00 | 0.00 | 1 | 1009.9 |
| 20260504025751 | 50 | 226 | 3.0 | 3.0 | 0.00 | 0.00 | 0.00 | 1 | 1010.0 |
| 20260504025248 | 50 | 226 | 2.0 | 2.0 | 0.00 | 0.00 | 0.00 | 1 | 1010.0 |
| 20260504024744 | 50 | 235 | 3.0 | 3.0 | 0.00 | 0.00 | 0.00 | 1 | 1009.9 |
| 20260504024241 | 50 | 221 | 3.0 | 3.0 | 0.00 | 0.00 | 0.00 | 1 | 1010.2 |
| 20260504023738 | 50 | 209 | 4.0 | 5.0 | 0.00 | 0.00 | 0.00 | 1 | 1010.1 |
| 20260504023234 | 50 | 226 | 5.0 | 6.0 | 0.00 | 0.00 | 0.00 | 1 | 1010.0 |
| 20260504022730 | 50 | 239 | 3.0 | 3.0 | 0.00 | 0.00 | 0.00 | 1 | 1010.0 |
| 20260504022226 | 50 | 239 | 5.0 | 6.0 | 0.00 | 0.00 | 0.00 | 1 | 1010.1 |
| 20260504021724 | 50 | 214 | 3.0 | 3.0 | 0.00 | 0.00 | 0.00 | 1 | 1010.0 |
| 20260504021221 | 51 | 221 | 2.0 | 2.0 | 0.00 | 0.00 | 0.00 | 1 | 1010.1 |
| 20260504020718 | 51 | 237 | 3.0 | 3.0 | 0.00 | 0.00 | 0.00 | 1 | 1010.0 |
| 20260504020214 | 51 | 232 | 3.0 | 3.0 | 0.00 | 0.00 | 0.00 | 1 | 1010.1 |
| 20260504015711 | 51 | 229 | 5.0 | 6.0 | 0.00 | 0.00 | 0.00 | 1 | 1010.0 |
| 20260504015207 | 51 | 203 | 3.0 | 3.0 | 0.00 | 0.00 | 0.00 | 1 | 1010.0 |
| 20260504014703 | 51 | 213 | 3.0 | 3.0 | 0.00 | 0.00 | 0.00 | 1 | 1010.0 |
| 20260504014200 | 51 | 241 | 3.0 | 3.0 | 0.00 | 0.00 | 0.00 | 1 | 1009.9 |
| 20260504013658 | 51 | 204 | 2.0 | 3.0 | 0.00 | 0.00 | 0.00 | 1 | 1010.0 |
| 20260504013154 | 52 | 265 | 1.0 | 2.0 | 0.00 | 0.00 | 0.00 | 1 | 1009.8 |
| 20260504012651 | 52 | 192 | 4.0 | 5.0 | 0.00 | 0.00 | 0.00 | 1 | 1009.8 |
| 20260504012149 | 52 | 259 | 1.0 | 2.0 | 0.00 | 0.00 | 0.00 | 1 | 1009.6 |
| 20260504011646 | 52 | 230 | 3.0 | 5.0 | 0.00 | 0.00 | 0.00 | 1 | 1009.8 |
| 20260504011143 | 52 | 223 | 2.0 | 2.0 | 0.00 | 0.00 | 0.00 | 1 | 1009.6 |
| 20260504010638 | 52 | 242 | 3.0 | 3.0 | 0.00 | 0.00 | 0.00 | 1 | 1009.9 |
| 20260504010134 | 52 | 7 | 2.0 | 2.0 | 0.00 | 0.00 | 0.00 | 1 | 1009.9 |
| 20260504005632 | 53 | 215 | 2.0 | 2.0 | 0.00 | 0.00 | 0.00 | 1 | 1009.7 |
| 20260504005128 | 53 | 351 | 2.0 | 3.0 | 0.00 | 0.00 | 0.00 | 1 | 1009.6 |
| 20260504004627 | 53 | 226 | 2.0 | 2.0 | 0.00 | 0.00 | 0.00 | 1 | 1009.7 |
| 20260504004123 | 53 | 215 | 2.0 | 2.0 | 0.00 | 0.00 | 0.00 | 1 | 1009.7 |
| 20260504003619 | 53 | 259 | 3.0 | 3.0 | 0.00 | 0.00 | 0.00 | 1 | 1009.7 |
| 20260504003116 | 53 | 222 | 3.0 | 3.0 | 0.00 | 0.00 | 0.00 | 1 | 1009.7 |
| 20260504002613 | 53 | 219 | 3.0 | 3.0 | 0.00 | 0.00 | 0.00 | 1 | 1010.0 |
| 20260504002111 | 54 | 262 | 2.0 | 2.0 | 0.00 | 0.00 | 0.00 | 1 | 1009.7 |
| 20260504001608 | 54 | 264 | 3.0 | 3.0 | 0.00 | 0.00 | 0.00 | 1 | 1009.7 |
| 20260504001104 | 54 | 210 | 5.0 | 7.0 | 0.00 | 0.00 | 0.00 | 1 | 1009.7 |
| 20260504000601 | 55 | 276 | 5.0 | 6.0 | 0.00 | 0.00 | 0.00 | 1 | 1009.5 |
| 20260504000059 | 55 | 235 | 4.0 | 6.0 | 0.00 | 0.00 | 0.00 | 1 | 1009.4 |
| 20260503235557 | 55 | 0 | 4.0 | 6.0 | 0.00 | 0.00 | 0.00 | 1 | 1009.7 |
| 20260503235053 | 55 | 205 | 2.0 | 2.0 | 0.00 | 0.00 | 0.00 | 1 | 1009.7 |
| 20260503234551 | 55 | 256 | 2.0 | 3.0 | 0.00 | 0.00 | 0.00 | 1 | 1009.8 |
| 20260503234049 | 55 | 209 | 6.0 | 13.0 | 0.00 | 0.00 | 0.00 | 1 | 1009.5 |
| 20260503233545 | 55 | 246 | 4.0 | 5.0 | 0.00 | 0.00 | 0.00 | 1 | 1009.6 |
| 20260503233041 | 56 | 256 | 2.0 | 2.0 | 0.00 | 0.00 | 0.00 | 1 | 1009.7 |
| 20260503232539 | 56 | 278 | 3.0 | 3.0 | 0.00 | 0.00 | 0.00 | 1 | 1009.8 |
| 20260503232036 | 57 | 265 | 3.0 | 3.0 | 0.00 | 0.00 | 0.00 | 1 | 1009.8 |
| 20260503231534 | 56 | 135 | 4.0 | 9.0 | 0.00 | 0.00 | 0.00 | 1 | 1009.5 |
| 20260503231030 | 56 | 255 | 3.0 | 3.0 | 0.00 | 0.00 | 0.00 | 1 | 1009.8 |
| 20260503230527 | 56 | 292 | 5.0 | 8.0 | 0.00 | 0.00 | 0.00 | 1 | 1009.9 |
| 20260503230025 | 56 | 262 | 4.0 | 5.0 | 0.00 | 0.00 | 0.00 | 1 | 1009.9 |
| 20260503225521 | 56 | 216 | 2.0 | 3.0 | 0.00 | 0.00 | 0.00 | 1 | 1009.7 |
| 20260503225016 | 56 | 284 | 3.0 | 3.0 | 0.00 | 0.00 | 0.00 | 1 | 1009.8 |
| 20260503224514 | 56 | 288 | 4.0 | 6.0 | 0.00 | 0.00 | 0.00 | 1 | 1009.8 |
| 20260503224012 | 56 | 271 | 1.0 | 2.0 | 0.00 | 0.00 | 0.00 | 1 | 1009.8 |
| 20260503223509 | 56 | 253 | 5.0 | 6.0 | 0.00 | 0.00 | 0.00 | 1 | 1009.7 |
| 20260503223005 | 56 | 293 | 6.0 | 8.0 | 0.00 | 0.00 | 0.00 | 1 | 1009.9 |
| 20260503222503 | 56 | 273 | 4.0 | 5.0 | 0.00 | 0.00 | 0.00 | 1 | 1010.0 |
| 20260503222001 | 57 | 251 | 3.0 | 5.0 | 0.00 | 0.00 | 0.00 | 1 | 1010.1 |
| 20260503221459 | 56 | 299 | 4.0 | 5.0 | 0.00 | 0.00 | 0.00 | 1 | 1009.9 |
| 20260503220956 | 57 | 240 | 3.0 | 3.0 | 0.00 | 0.00 | 0.00 | 1 | 1009.8 |
| 20260503220452 | 57 | 305 | 4.0 | 5.0 | 0.00 | 0.00 | 0.00 | 1 | 1009.8 |
| 20260503215949 | 57 | 278 | 7.0 | 8.0 | 0.00 | 0.00 | 0.00 | 1 | 1009.6 |
| 20260503215446 | 57 | 290 | 6.0 | 8.0 | 0.00 | 0.00 | 0.00 | 1 | 1009.6 |
| 20260503214943 | 57 | 290 | 4.0 | 5.0 | 0.00 | 0.00 | 0.00 | 1 | 1009.7 |
| 20260503214441 | 57 | 289 | 4.0 | 5.0 | 0.00 | 0.00 | 0.00 | 1 | 1009.7 |
| 20260503213938 | 58 | 243 | 5.0 | 6.0 | 0.00 | 0.00 | 0.00 | 1 | 1009.9 |
| 20260503213437 | 59 | 204 | 6.0 | 7.0 | 0.00 | 0.00 | 0.00 | 1 | 1009.7 |
| 20260503212932 | 59 | 240 | 6.0 | 8.0 | 0.00 | 0.00 | 0.00 | 1 | 1009.5 |
| 20260503212430 | 57 | 289 | 5.0 | 7.0 | 0.00 | 0.00 | 0.00 | 1 | 1009.4 |
| 20260503211927 | 57 | 232 | 3.0 | 5.0 | 0.00 | 0.00 | 0.00 | 1 | 1009.4 |
| 20260503211424 | 59 | 219 | 4.0 | 6.0 | 0.00 | 0.00 | 0.00 | 1 | 1009.5 |
| 20260503210919 | 57 | 269 | 3.0 | 7.0 | 0.00 | 0.00 | 0.00 | 1 | 1009.5 |
| 20260503210416 | 58 | 284 | 7.0 | 8.0 | 0.00 | 0.00 | 0.00 | 1 | 1009.4 |
| 20260503205911 | 59 | 279 | 7.0 | 9.0 | 0.00 | 0.00 | 0.00 | 1 | 1009.5 |
| 20260503205409 | 59 | 224 | 4.0 | 6.0 | 0.00 | 0.00 | 0.00 | 1 | 1009.4 |
| 20260503204904 | 59 | 218 | 4.0 | 5.0 | 0.00 | 0.00 | 0.00 | 1 | 1009.5 |
| 20260503204402 | 57 | 264 | 5.0 | 6.0 | 0.00 | 0.00 | 0.00 | 1 | 1009.6 |
| 20260503203859 | 59 | 292 | 10.0 | 13.0 | 0.00 | 0.00 | 0.00 | 1 | 1009.9 |
| 20260503203356 | 58 | 205 | 4.0 | 5.0 | 0.00 | 0.00 | 0.00 | 1 | 1010.0 |
| 20260503202853 | 58 | 286 | 6.0 | 7.0 | 0.00 | 0.00 | 0.00 | 1 | 1009.9 |
| 20260503202351 | 58 | 267 | 2.0 | 3.0 | 0.00 | 0.00 | 0.00 | 1 | 1009.8 |
| 20260503201849 | 59 | 232 | 6.0 | 7.0 | 0.00 | 0.00 | 0.00 | 1 | 1009.7 |
| 20260503201346 | 58 | 220 | 4.0 | 6.0 | 0.00 | 0.00 | 0.00 | 1 | 1009.9 |
| 20260503200844 | 57 | 280 | 5.0 | 6.0 | 0.00 | 0.00 | 0.00 | 1 | 1010.2 |
| 20260503200339 | 57 | 294 | 5.0 | 6.0 | 0.00 | 0.00 | 0.00 | 1 | 1010.0 |
| 20260503195837 | 57 | 318 | 7.0 | 8.0 | 0.00 | 0.00 | 0.00 | 1 | 1010.3 |
| 20260503195333 | 57 | 284 | 5.0 | 6.0 | 0.00 | 0.00 | 0.00 | 1 | 1010.3 |
| 20260503194830 | 57 | 309 | 4.0 | 5.0 | 0.00 | 0.00 | 0.00 | 1 | 1010.5 |
| 20260503194326 | 57 | 282 | 10.0 | 14.0 | 0.00 | 0.00 | 0.00 | 1 | 1010.4 |
| 20260503193823 | 57 | 234 | 5.0 | 6.0 | 0.00 | 0.00 | 0.00 | 1 | 1010.4 |
| 20260503193319 | 56 | 249 | 4.0 | 5.0 | 0.00 | 0.00 | 0.00 | 1 | 1010.6 |
| 20260503192815 | 57 | 259 | 7.0 | 8.0 | 0.00 | 0.00 | 0.00 | 1 | 1010.3 |
| 20260503192310 | 57 | 252 | 6.0 | 7.0 | 0.00 | 0.00 | 0.00 | 1 | 1010.8 |
| 20260503191806 | 57 | 251 | 5.0 | 6.0 | 0.00 | 0.00 | 0.00 | 1 | 1010.6 |
| 20260503191304 | 58 | 263 | 4.0 | 5.0 | 0.00 | 0.00 | 0.00 | 1 | 1010.7 |
| 20260503190800 | 56 | 302 | 4.0 | 6.0 | 0.00 | 0.00 | 0.00 | 1 | 1011.0 |
| 20260503190257 | 56 | 257 | 9.0 | 11.0 | 0.00 | 0.00 | 0.00 | 1 | 1010.8 |
| 20260503185755 | 56 | 283 | 5.0 | 7.0 | 0.00 | 0.00 | 0.00 | 1 | 1011.0 |
| 20260503185250 | 57 | 220 | 6.0 | 7.0 | 0.00 | 0.00 | 0.00 | 1 | 1010.8 |
| 20260503184744 | 58 | 228 | 4.0 | 6.0 | 0.00 | 0.00 | 0.00 | 1 | 1011.0 |
| 20260503184241 | 57 | 287 | 4.0 | 7.0 | 0.00 | 0.00 | 0.00 | 1 | 1011.0 |
| 20260503183737 | 57 | 292 | 3.0 | 5.0 | 0.00 | 0.00 | 0.00 | 1 | 1011.4 |
| 20260503183235 | 56 | 308 | 7.0 | 8.0 | 0.00 | 0.00 | 0.00 | 1 | 1011.4 |
| 20260503182733 | 57 | 284 | 5.0 | 5.0 | 0.00 | 0.00 | 0.00 | 1 | 1011.5 |
| 20260503182232 | 56 | 292 | 4.0 | 5.0 | 0.00 | 0.00 | 0.00 | 1 | 1011.3 |
| 20260503181728 | 56 | 220 | 5.0 | 6.0 | 0.00 | 0.00 | 0.00 | 1 | 1011.4 |
| 20260503181225 | 56 | 274 | 9.0 | 11.0 | 0.00 | 0.00 | 0.00 | 1 | 1011.4 |
| 20260503180721 | 56 | 345 | 2.0 | 5.0 | 0.00 | 0.00 | 0.00 | 1 | 1011.7 |
| 20260503180220 | 55 | 273 | 4.0 | 7.0 | 0.00 | 0.00 | 0.00 | 1 | 1011.6 |
| 20260503175716 | 55 | 287 | 5.0 | 7.0 | 0.00 | 0.00 | 0.00 | 1 | 1011.7 |
| 20260503175214 | 56 | 289 | 3.0 | 3.0 | 0.00 | 0.00 | 0.00 | 1 | 1011.6 |
| 20260503174709 | 56 | 193 | 0.0 | 0.0 | 0.00 | 0.00 | 0.00 | 1 | 1012.0 |
| 20260503174207 | 55 | 255 | 8.0 | 15.0 | 0.00 | 0.00 | 0.00 | 1 | 1011.9 |
| 20260503173702 | 55 | 225 | 5.0 | 6.0 | 0.00 | 0.00 | 0.00 | 1 | 1011.6 |
| 20260503173159 | 55 | 255 | 5.0 | 7.0 | 0.00 | 0.00 | 0.00 | 1 | 1012.0 |
| 20260503172655 | 54 | 212 | 5.0 | 7.0 | 0.00 | 0.00 | 0.00 | 1 | 1012.2 |
| 20260503172153 | 54 | 266 | 5.0 | 7.0 | 0.00 | 0.00 | 0.00 | 1 | 1012.0 |
| 20260503171649 | 55 | 234 | 3.0 | 5.0 | 0.00 | 0.00 | 0.00 | 1 | 1012.1 |
| 20260503171146 | 54 | 337 | 2.0 | 2.0 | 0.00 | 0.00 | 0.00 | 1 | 1012.2 |
| 20260503170643 | 54 | 271 | 3.0 | 3.0 | 0.00 | 0.00 | 0.00 | 1 | 1012.3 |
| 20260503170140 | 54 | 213 | 7.0 | 8.0 | 0.00 | 0.00 | 0.00 | 1 | 1012.1 |
| 20260503150531 | 48 | 288 | 4.0 | 5.0 | 0.00 | 0.00 | 0.00 | 1 | 1013.2 |